Location: Flynn Junction
(40.1314°N, 99.5162°W)
Time: 21:39:24
(UTC+00:00)

Cosmos 1697 Rocket - Pass Details

Date: 29 October 2020
Orbit: 831 x 845 km, 71.0° (Epoch: 01 December)

Event Time Altitude Azimuth Distance (km) Brightness Sun altitude
Exits shadow 12:31:56 - 298° (WNW) 2,715 4.7 -6.9°
Reaches altitude 10° 12:33:21 10° 285° (WNW) 2,465 4.4 -6.6°
Maximum altitude 12:35:25 12° 264° (W) 2,317 4.4 -6.2°
Drops below altitude 10° 12:37:29 10° 242° (WSW) 2,460 4.7 -5.8°
Sets 12:41:36 0° 213° (SSW) 3,389 5.6 -5.1°
